Regional Weather Roundup
Issued by NWS

Home | Current Version | Previous Version | Graphics & Text | Print | Product List | Glossary On
Versions: 1 2 3 4 5 6 7 8 9 10 11 12 13 14 15 16 17 18 19 20 21 22 23 24 25 26 27 28 29 30 31 32 33 34 35 36 37 38 39 40 41 42 43 44 45 46 47 48 49 50
000
ASUS43 KLMK 010410
RWRKY
KENTUCKY REGIONAL WEATHER ROUNDUP
NATIONAL WEATHER SERVICE LOUISVILLE KY
1200 AM EDT SAT AUG 01 2015

NOTE "FAIR" INDICATES FEW OR NO CLOUDS BELOW 12,000 FEET
WITH NO SIGNIFICANT WEATHER AND/OR OBSTRUCTIONS TO VISIBILITY.

KYZ001>023-026-027-061>063-070>075-010500-
WESTERN AND SOUTH CENTRAL KENTUCKY

CITY           SKY/WX    TMP DP  RH WIND       PRES   REMARKS
PADUCAH        CLEAR     72  69  90 SW3       30.04S
HENDERSON      CLEAR     73  66  78 CALM      30.02S
OWENSBORO      CLEAR     75  71  87 CALM      30.03S
HOPKINSVILLE   CLEAR     73  70  88 SW2       30.05R
BOWLING GREEN  CLEAR     76  64  66 CALM      30.05R
GLASGOW        CLEAR    N/A N/A N/A CALM      30.04S
$$

KYZ024-025-028>034-038-045-046-053-010500-
NORTH CENTRAL KENTUCKY

CITY           SKY/WX    TMP DP  RH WIND       PRES   REMARKS
LOUISVILLE/SDF PTCLDY    76  63  64 W7        30.00S
LOUISVILLE/LOU CLEAR     79  62  56 W3        30.01S
FORT KNOX      CLEAR     69  65  86 CALM      30.01F
$$

KYZ035>037-039>044-047>052-055>060-089>105-010500-
NORTHEAST KENTUCKY

CITY           SKY/WX    TMP DP  RH WIND       PRES   REMARKS
LEXINGTON      CLEAR     69  61  75 SW7       30.03S
COVINGTON      CLEAR     71  61  70 W7        29.99S
FRANKFORT      CLEAR     71  62  73 W6        30.01S
$$

KYZ054-064>069-076>088-106>120-010500-
SOUTHEAST KENTUCKY

CITY           SKY/WX    TMP DP  RH WIND       PRES   REMARKS
JACKSON        CLEAR     73  60  63 W5        30.04S
LONDON         CLEAR     68  62  81 CALM      30.05S
SOMERSET       CLEAR     64  64 100 CALM      30.06S
MIDDLESBORO    CLEAR     65  62  91 CALM      30.08S
MONTICELLO     CLEAR     64  64 100 CALM      30.08S
$$



USA.gov is the U.S. government's official web portal to all federal, state and local government web resources and services.